Skip Page Navigation
NASA JPL Caltech
NASA Logo - Jet Propulsion Laboratory + View the NASA Portal
+ Center for Near-Earth Object Studies
JPL Home Earth Solar System Stars & Galaxies Technology
JPL Solar System Dynamics
BODIES ORBITS EPHEMERIDES TOOLS PHYSICAL DATA DISCOVERY FAQ SITE MAP
JPL Small-Body Database Browser
Search: [ help ]  
233837 (2008 UX277)
Classification: Main-belt Asteroid          SPK-ID: 2233837
Ephemeris | Orbit Diagram | Orbital Elements | Mission Design | Physical Parameters | Discovery Circumstances | Close-Approach Data ]

[ show orbit diagram ]
Orbital Elements at Epoch 2459000.5 (2020-May-31.0) TDB
Reference: JPL 13 (heliocentric ecliptic J2000)
 Element Value Uncertainty (1-sigma)   Units 
e .1243774286429064 5.9786e-08  
a 3.077470974850482 2.7901e-08 au
q 2.694703048275401 1.8742e-07 au
i 2.535607732696267 7.792e-06 deg
node 44.33098489289942 0.00012309 deg
peri 34.01401313550564 0.00012759 deg
M 20.18075305504443 2.9694e-05 deg
tp 2458889.958782753915
(2020-Feb-10.45878275)
0.00016272 TDB
period 1971.920378790985
5.40
2.6816e-05
7.342e-08
d
yr
n .1825631520785447 2.4827e-09 deg/d
Q 3.460238901425563 3.1371e-08 au
  Orbit Determination Parameters
   # obs. used (total)      221  
   data-arc span      9922 days (27.16 yr)  
   first obs. used      1992-11-28  
   last obs. used      2020-01-28  
   planetary ephem.      DE431  
   SB-pert. ephem.      SB431-N16  
   condition code      0  
   norm. resid. RMS      .57528  
   source      ORB  
   producer      Otto Matic  
   solution date      2020-Feb-25 07:24:45  

Additional Information
 Earth MOID = 1.71065 au 
 Jupiter MOID = 1.7796 au 
 T_jup = 3.215 
[ show covariance matrix ]

Ephemeris | Orbit Diagram | Orbital Elements | Mission Design | Physical Parameters | Discovery Circumstances | Close-Approach Data ]

Physical Parameter Table
Parameter Symbol Value Units Sigma Reference Notes
absolute magnitude H 16.2   n/a MPO454691  

233837 (2008 UX277)          Discovered 2008-Oct-28 by Mt. Lemmon Survey at Mount Lemmon
Reference: 20100228/Numbers.arcLast Updated: 2010-03-03

[ show close-approach data ]
Alternate Designations
 2008 UX277 = 2003 YK72 = 2005 EP144 = 2006 KW130 
Ephemeris | Orbit Diagram | Orbital Elements | Mission Design | Physical Parameters | Discovery Circumstances | Close-Approach Data ]
ABOUT SSD CREDITS/AWARDS PRIVACY/COPYRIGHT GLOSSARY LINKS
FirstGov 2020-Jul-16 14:32 UT
(server date/time)  
NASA Home Page
Site Manager:   Ryan S. Park
Webmaster  Alan B. Chamberlin